GW6962 Weather Reports


Display with metric or nautical units.
time (UTC)temp
F
wind
direction
speed
MPH
gust
MPH
rain 1hr
in
rain 24hr
in
rain mn
in
humidity
%
barometer
mb
20260507020825 43 199 5.0 7.0 0.00 0.48 0.48 86 1000.4
20260507015322 43 235 3.0 4.0 0.00 0.48 0.48 87 1000.4
20260507013817 43 159 3.0 3.0 0.00 0.48 0.48 87 1000.3
20260507012314 43 242 3.0 4.0 0.00 0.48 0.48 88 1000.2
20260507010813 43 148 2.0 3.0 0.00 0.48 0.48 88 1000.2
20260507005309 44 191 4.0 6.0 0.00 0.48 0.48 87 1000.4
20260507003806 44 149 1.0 1.0 0.00 0.48 0.48 88 999.9
20260507002306 44 176 3.0 3.0 0.00 0.48 0.48 87 999.8
20260507000802 45 143 1.0 1.0 0.00 0.48 0.48 86 999.4
20260506235256 46 159 2.0 2.0 0.00 0.48 0.48 83 999.3
20260506233754 46 122 0.0 0.0 0.00 0.48 0.48 82 999.0
20260506232253 46 147 1.0 1.0 0.00 0.48 0.48 81 999.3
20260506230751 47 151 1.0 1.0 0.00 0.48 0.48 80 999.1
20260506225248 47 139 1.0 1.0 0.00 0.48 0.48 78 999.1
20260506223743 47 174 2.0 2.0 0.00 0.48 0.48 77 999.0
20260506222238 48 175 2.0 2.0 0.00 0.48 0.48 75 999.0
20260506220737 48 174 2.0 2.0 0.00 0.48 0.48 76 999.0
20260506215236 48 158 2.0 2.0 0.00 0.48 0.48 77 999.1
20260506213734 48 163 2.0 2.0 0.00 0.48 0.48 78 998.9
20260506212229 48 358 4.0 4.0 0.00 0.48 0.48 78 998.7
20260506210724 48 23 3.0 3.0 0.00 0.48 0.48 77 998.5
20260506205219 48 65 2.0 2.0 0.00 0.48 0.48 78 998.7
20260506203718 48 351 3.0 3.0 0.00 0.48 0.48 77 998.5
20260506202214 48 55 2.0 3.0 0.00 0.48 0.48 79 998.6
20260506200711 47 68 3.0 3.0 0.00 0.48 0.48 81 998.4
20260506195206 47 68 3.0 3.0 0.00 0.48 0.48 83 998.5
20260506193704 46 65 3.0 3.0 0.00 0.48 0.48 84 998.3
20260506192159 46 44 4.0 4.0 0.00 0.48 0.48 85 998.5
20260506190656 46 33 3.0 3.0 0.00 0.48 0.48 83 998.6
20260506185152 46 78 2.0 2.0 0.00 0.48 0.48 84 998.6
20260506183649 46 40 5.0 9.0 0.00 0.48 0.48 85 998.5
20260506182145 46 67 4.0 6.0 0.00 0.48 0.48 87 998.3
20260506180643 46 41 7.0 7.0 0.00 0.48 0.48 87 998.5
20260506175138 45 47 8.0 9.0 0.00 0.48 0.48 89 998.3
20260506173637 45 58 2.0 3.0 0.00 0.48 0.48 88 998.0
20260506172132 45 42 5.0 6.0 0.00 0.48 0.48 88 997.9
20260506170631 45 33 4.0 7.0 0.00 0.48 0.48 90 998.1
20260506165127 45 81 3.0 4.0 0.00 0.48 0.48 90 998.1
20260506163623 45 34 5.0 7.0 0.00 0.48 0.48 91 998.2
20260506162122 44 46 4.0 3.0 0.00 0.48 0.48 91 998.7
20260506160619 44 27 5.0 8.0 0.07 0.48 0.48 92 998.5
20260506155116 44 91 2.0 4.0 0.00 0.47 0.47 93 998.8
20260506152732 44 80 3.0 3.0 0.05 0.47 0.47 93 998.5
20260506151231 44 72 3.0 3.0 0.00 0.46 0.46 92 998.7
20260506145727 44 54 4.0 6.0 0.00 0.46 0.46 92 998.5
20260506144224 44 55 4.0 6.0 0.00 0.46 0.46 92 998.2
20260506142723 44 69 2.0 2.0 0.00 0.45 0.45 94 998.4
20260506141223 43 39 4.0 6.0 0.05 0.45 0.45 93 998.5
20260506135719 43 69 4.0 7.0 0.00 0.44 0.44 93 998.5
20260506134215 43 78 2.0 3.0 0.00 0.43 0.43 94 998.8
20260506132712 43 68 5.0 6.0 0.05 0.42 0.42 94 998.3
20260506131208 43 89 2.0 2.0 0.00 0.41 0.41 94 998.4
20260506125706 43 82 2.0 2.0 0.00 0.40 0.40 94 998.5
20260506124205 42 84 2.0 4.0 0.05 0.40 0.40 94 998.4
20260506122703 43 65 5.0 6.0 0.07 0.39 0.39 94 998.3
20260506121200 43 81 2.0 2.0 0.05 0.38 0.38 93 998.5
20260506115659 42 58 2.0 2.0 0.07 0.37 0.37 94 999.0
20260506114158 43 101 1.0 2.0 0.05 0.36 0.36 94 998.7
20260506112655 43 90 2.0 2.0 0.07 0.35 0.35 94 999.1
20260506111153 43 96 1.0 1.0 0.00 0.33 0.33 95 999.2
20260506105650 0 0.0 0.0 0.00 0.00 0.00 998.8
20260506104149 0 0.0 0.0 0.00 0.00 0.00 998.7
20260506102646 0 0.0 0.0 0.00 0.00 0.00 999.1
20260506101143 0 0.0 0.0 0.00 0.00 0.00 999.1
20260506095638 0 0.0 0.0 0.00 0.00 0.00 999.1
20260506094135 0 0.0 0.0 0.00 0.00 0.00 998.6
20260506092634 0 0.0 0.0 0.00 0.00 0.00 998.6
20260506091131 44 117 0.0 0.0 0.07 0.17 0.17 95 998.5
20260506085628 44 134 0.0 0.0 0.07 0.15 0.15 95 998.9
20260506084124 44 134 0.0 0.0 0.00 0.14 0.14 95 999.2
20260506082620 44 134 0.0 0.0 0.00 0.13 0.13 95 998.7
20260506081118 44 123 1.0 0.0 0.00 0.13 0.13 95 998.9
20260506072609 44 129 1.0 1.0 0.00 0.13 0.13 95 998.9
20260506071108 44 118 0.0 0.0 0.35 0.13 0.13 94 999.0
20260506061101 44 141 0.0 1.0 0.19 0.07 0.07 93 998.7
20260506051051 44 149 2.0 2.0 0.07 0.04 0.04 94 999.6
20260506044046 45 168 2.0 2.0 0.00 0.02 0.02 94 1000.0
20260506042546 45 147 1.0 1.0 0.00 0.01 0.01 93 999.8
20260506041044 45 154 2.0 2.0 0.05 0.01 0.01 92 999.8
20260506035541 45 194 6.0 7.0 0.07 0.74 0.74 93 999.8
20260506034037 0 0.0 0.0 0.00 0.00 0.00 999.9
20260506032535 45 185 4.0 6.0 0.12 0.73 0.73 93 999.9
20260506031032 45 178 5.0 6.0 0.05 0.71 0.71 93 999.9
20260506025530 45 180 3.0 3.0 0.12 0.70 0.70 93 999.6
20260506024025 45 173 3.0 4.0 0.07 0.68 0.68 93 999.4
20260506022523 45 164 4.0 6.0 0.05 0.66 0.66 93 999.4